Change the Weather History Date:

Monday, September 17, 2012

  Actual Average Record
Temperature  
Mean Temperature 52 °F -  
Max Temperature 60 °F 56 °F 75 °F (2003)
Min Temperature 42 °F 44 °F 39 °F (2001)
Degree Days  
Heating Degree Days 13    
Growing Degree Days 2 (Base 50)    
Moisture  
Dew Point 45 °F    
Average Humidity 84    
Maximum Humidity 94    
Minimum Humidity 47    
Precipitation  
Precipitation 0.28 in - - ()
Sea Level Pressure  
Sea Level Pressure 29.57 in    
Wind  
Wind Speed 13 mph ()    
Max Wind Speed 28 mph    
Max Gust Speed -    
Visibility 6.5 miles    
Events Rain    
Averages and records for this station are not official NWS values.
T = Trace of Precipitation, MM = Missing Value Source: Averaged Metar Reports

Daily Weather History Graph

Daily Weather History Graph

Search for Another Location

Airport or City:

Trip Planner

Search our weather history database for the weather conditions in past years. The results will help you decide how hot, cold, wet, or windy it might be!

Date:

Astronomy

Sep. 17, 2012 Rise Set
Actual Time 6:47 AM BST 7:23 PM BST
Civil Twilight 6:09 AM BST 8:00 PM BST
Nautical Twilight 5:23 AM BST 8:46 PM BST
Astronomical Twilight 4:34 AM BST 9:35 PM BST
Moon 8:49 AM BST (9/17) 7:21 PM BST (9/17)
Length of Visible Light 13h 51m
Length of Day
12h 35m
New Moon, 2% of the Moon is Illuminated
Sep 17
New Moon
Sep 22
First Quarter
Sep 30
Full
Oct 8
Last Quarter
Oct 15
New

Hourly Weather History & Observations

Time (BST) Temp. Windchill Dew Point Humidity Pressure Visibility Wind Dir Wind Speed Gust Speed Precip Events Conditions
12:50 AM 46 °F - 43 °F 86% 29.62 in 25 mi West 10.4 mph - -   Scattered Clouds
12:50 AM 46.4 °F 41.5 °F 42.8 °F 87% 29.62 in 6.2 mi West 10.4 mph - N/A   Partly Cloudy
1:50 AM 48.2 °F - 44.6 °F 87% 29.62 in 6.2 mi WSW 16.1 mph - N/A   Partly Cloudy
2:50 AM 46.4 °F 40.7 °F 44.6 °F 93% 29.62 in 6.2 mi West 12.7 mph - N/A   Scattered Clouds
3:50 AM 48 °F - 45 °F 86% 29.62 in 25 mi West 10.4 mph - -   Scattered Clouds
3:50 AM 48.2 °F - 44.6 °F 87% 29.59 in 6.2 mi West 10.4 mph - N/A   Mostly Cloudy
4:50 AM 50.0 °F - 46.4 °F 87% 29.59 in 6.2 mi WSW 16.1 mph - N/A   Scattered Clouds
5:50 AM 50.0 °F - 46.4 °F 87% 29.59 in 6.2 mi WSW 11.5 mph - N/A   Mostly Cloudy
6:50 AM 50 °F - 46 °F 83% 29.58 in 16 mi SW 15.0 mph - -   Mostly Cloudy
6:50 AM 50.0 °F - 46.4 °F 87% 29.56 in 6.2 mi SW 15.0 mph - N/A   Mostly Cloudy
7:50 AM 50.0 °F - 46.4 °F 87% 29.56 in 6.2 mi WSW 18.4 mph - N/A Rain Light Rain Showers
8:50 AM 51.8 °F - 46.4 °F 82% 29.56 in 6.2 mi SW 12.7 mph - N/A   Partly Cloudy
9:50 AM 54 °F - 49 °F 76% 29.58 in 25 mi WSW 19.6 mph - - Rain Light Rain Showers
9:50 AM 53.6 °F - 48.2 °F 82% 29.56 in 6.2 mi WSW 19.6 mph - N/A   Partly Cloudy
10:50 AM 55.4 °F - 46.4 °F 72% 29.56 in 6.2 mi WSW 26.5 mph - N/A Rain Light Rain Showers
11:50 AM 59.0 °F - 46.4 °F 63% 29.56 in 6.2 mi WSW 27.6 mph - N/A   Scattered Clouds
12:50 PM 58 °F - 43 °F 47% 29.57 in 12 mi West 26.5 mph - -   Scattered Clouds
12:50 PM 59.0 °F - 42.8 °F 55% 29.56 in 6.2 mi West 26.5 mph - N/A   Scattered Clouds
1:29 PM 55.4 °F - 48.2 °F 77% 29.56 in 3.1 mi West 26.5 mph - N/A Rain Rain Showers
1:50 PM 50.0 °F - 46.4 °F 87% 29.56 in 5.6 mi West 19.6 mph - N/A Rain Rain Showers
2:50 PM 51.8 °F - 50.0 °F 94% 29.56 in 6.2 mi SW 9.2 mph - N/A   Mostly Cloudy
3:33 PM 51.8 °F - 48.2 °F 88% 29.56 in 3.1 mi West 11.5 mph - N/A Rain Rain Showers
3:50 PM 50 °F - 46 °F 79% 29.58 in 3 mi West 19.6 mph - - Rain Heavy Rain Showers
3:50 PM 50.0 °F - 46.4 °F 87% 29.56 in 3.1 mi West 19.6 mph - N/A Rain Rain Showers
4:50 PM 50.0 °F - 46.4 °F 87% 29.53 in 6.2 mi WSW 12.7 mph - N/A Rain Light Rain Showers
5:50 PM 50.0 °F - 46.4 °F 87% 29.53 in 6.2 mi WSW 16.1 mph - N/A   Mostly Cloudy
6:50 PM 49 °F - 46 °F 85% 29.55 in 12 mi WSW 10.4 mph - - Rain Light Rain Showers
6:50 PM 50.0 °F - 46.4 °F 87% 29.53 in 6.2 mi WSW 10.4 mph - N/A   Scattered Clouds
7:50 PM 46.4 °F 40.7 °F 44.6 °F 93% 29.53 in 6.2 mi West 12.7 mph - N/A   Partly Cloudy
8:50 PM 46.4 °F 40.7 °F 42.8 °F 87% 29.56 in 6.2 mi WSW 12.7 mph - N/A   Partly Cloudy
9:50 PM 44 °F - 42 °F 92% 29.58 in 31 mi SW 9.2 mph - -   Scattered Clouds
9:50 PM 44.6 °F 39.7 °F 42.8 °F 93% 29.56 in 6.2 mi SW 9.2 mph - N/A   Partly Cloudy
10:50 PM 44.6 °F 40.2 °F 42.8 °F 93% 29.56 in 6.2 mi WSW 8.1 mph - N/A   Partly Cloudy
11:50 PM 42.8 °F 36.6 °F 41.0 °F 93% 29.56 in 6.2 mi WSW 11.5 mph - N/A   Partly Cloudy